When you browse on this site, cookies collect data to enhance your experience and personalize the content and advertising you see.
Visit our Privacy Policy to learn more. By continuing to use the site, you agree to this use of cookies and data.
  • In Österreich
  • Länderverzeichnis
  • Für 7 Tage
  • Wassertemperatur
  • Wetterkarte
  • News
  • Widgets
  • user-avatar
    Anmelden

    Stündliche Wetter Sibaté

    Heute, 21 Januar, Dienstag

    Zeit Temperatur Niederschläge Wind Luftdruck Luftfeuchtigkeit
    00:00 +12°C° 0.2 mm 0 m/S 559 mmHg 82%
    01:00 +12°C° 0.2 mm 0 m/S 559 mmHg 83%
    02:00 +12°C° 0.3 mm 0 m/S 559 mmHg 83%
    03:00 +11°C° 0.3 mm 0 m/S 558 mmHg 84%
    04:00 +11°C° 0.3 mm 0 m/S 558 mmHg 84%
    05:00 +12°C° 0.2 mm 0 m/S 558 mmHg 84%
    06:00 +12°C° 0.2 mm 0 m/S 559 mmHg 84%
    07:00 +12°C° 0.2 mm 0 m/S 559 mmHg 84%
    08:00 +13°C° 0.1 mm 0 m/S 560 mmHg 82%
    09:00 +15°C° 0.1 mm 1 m/S 560 mmHg 79%
    10:00 +15°C° 0.1 mm 1 m/S 561 mmHg 77%
    11:00 +16°C° 0.3 mm 1 m/S 560 mmHg 78%
    12:00 +16°C° 0.3 mm 1 m/S 560 mmHg 80%
    13:00 +16°C° 0.3 mm 1 m/S 559 mmHg 82%
    14:00 +16°C° 0.6 mm 1 m/S 559 mmHg 81%
    15:00 +16°C° 0.6 mm 1 m/S 559 mmHg 81%
    16:00 +16°C° 0.6 mm 1 m/S 558 mmHg 80%
    17:00 +15°C° 1 mm 1 m/S 558 mmHg 83%
    18:00 +14°C° 1 mm 1 m/S 558 mmHg 86%
    19:00 +13°C° 1 mm 1 m/S 558 mmHg 89%
    20:00 +13°C° 0.2 mm 1 m/S 558 mmHg 87%
    21:00 +13°C° 0.2 mm 1 m/S 559 mmHg 85%
    22:00 +13°C° 0.2 mm 1 m/S 559 mmHg 84%
    23:00 +12°C° 0 mm 1 m/S 559 mmHg 85%

    Morgen, 22 Januar, Mittwoch

    Zeit Temperatur Niederschläge Wind Luftdruck Luftfeuchtigkeit
    00:00 +11°C° 0 mm 0 m/S 558 mmHg 86%
    01:00 +11°C° 0 mm 0 m/S 558 mmHg 87%
    02:00 +10°C° 0.1 mm 0 m/S 557 mmHg 88%
    03:00 +10°C° 0.1 mm 0 m/S 557 mmHg 89%
    04:00 +10°C° 0.1 mm 0 m/S 557 mmHg 89%
    05:00 +10°C° 0.1 mm 0 m/S 557 mmHg 89%
    06:00 +11°C° 0.1 mm 0 m/S 558 mmHg 89%
    07:00 +11°C° 0.1 mm 0 m/S 559 mmHg 88%
    08:00 +14°C° 0.5 mm 1 m/S 560 mmHg 86%
    09:00 +15°C° 0.5 mm 1 m/S 561 mmHg 83%
    10:00 +16°C° 0.5 mm 2 m/S 562 mmHg 81%
    11:00 +17°C° 1.5 mm 2 m/S 561 mmHg 81%
    12:00 +17°C° 1.5 mm 2 m/S 561 mmHg 81%
    13:00 +17°C° 1.5 mm 2 m/S 560 mmHg 81%
    14:00 +17°C° 1.3 mm 2 m/S 560 mmHg 82%
    15:00 +16°C° 1.3 mm 1 m/S 559 mmHg 83%
    16:00 +16°C° 1.3 mm 1 m/S 558 mmHg 84%
    17:00 +15°C° 0.4 mm 1 m/S 558 mmHg 85%
    18:00 +14°C° 0.4 mm 1 m/S 558 mmHg 87%
    19:00 +13°C° 0.4 mm 1 m/S 558 mmHg 88%
    20:00 +12°C° 0.2 mm 0 m/S 558 mmHg 88%
    21:00 +12°C° 0.2 mm 0 m/S 558 mmHg 89%
    22:00 +11°C° 0.2 mm 0 m/S 559 mmHg 89%
    23:00 +11°C° 0 mm 0 m/S 558 mmHg 90%

    übermorgen, 23 Januar, Donnerstag

    Zeit Temperatur Niederschläge Wind Luftdruck Luftfeuchtigkeit
    00:00 +11°C° 0 mm 0 m/S 558 mmHg 91%
    01:00 +10°C° 0 mm 0 m/S 557 mmHg 92%
    02:00 +10°C° 0 mm 0 m/S 557 mmHg 92%
    03:00 +10°C° 0 mm 0 m/S 557 mmHg 93%
    04:00 +10°C° 0 mm 0 m/S 557 mmHg 93%
    05:00 +10°C° 0 mm 0 m/S 557 mmHg 93%
    06:00 +11°C° 0 mm 0 m/S 558 mmHg 92%
    07:00 +11°C° 0 mm 0 m/S 558 mmHg 91%
    08:00 +14°C° 0.1 mm 1 m/S 559 mmHg 85%
    09:00 +15°C° 0.1 mm 1 m/S 560 mmHg 79%
    10:00 +17°C° 0.1 mm 2 m/S 561 mmHg 72%
    11:00 +17°C° 0.4 mm 2 m/S 561 mmHg 73%
    12:00 +18°C° 0.4 mm 2 m/S 561 mmHg 74%
    13:00 +18°C° 0.4 mm 2 m/S 560 mmHg 75%
    14:00 +18°C° 0.8 mm 2 m/S 559 mmHg 77%
    15:00 +17°C° 0.8 mm 2 m/S 559 mmHg 80%
    16:00 +18°C° 0.8 mm 1 m/S 558 mmHg 83%
    17:00 +16°C° 0.6 mm 1 m/S 558 mmHg 86%
    18:00 +15°C° 0.6 mm 1 m/S 558 mmHg 89%
    19:00 +13°C° 0.6 mm 0 m/S 558 mmHg 92%
    20:00 +12°C° 0.6 mm 0 m/S 558 mmHg 92%
    21:00 +12°C° 0.6 mm 0 m/S 558 mmHg 91%
    22:00 +11°C° 0.6 mm 0 m/S 558 mmHg 90%
    23:00 +11°C° 0.1 mm 0 m/S 558 mmHg 90%

    24 Januar, Freitag

    Zeit Temperatur Niederschläge Wind Luftdruck Luftfeuchtigkeit
    00:00 +11°C° 0.1 mm 0 m/S 558 mmHg 91%
    01:00 +10°C° 0.1 mm 0 m/S 558 mmHg 91%
    02:00 +10°C° 0.2 mm 0 m/S 557 mmHg 91%
    03:00 +10°C° 0.2 mm 0 m/S 557 mmHg 91%
    04:00 +10°C° 0.2 mm 0 m/S 557 mmHg 91%
    05:00 +10°C° 0 mm 0 m/S 558 mmHg 90%
    06:00 +11°C° 0 mm 0 m/S 558 mmHg 89%
    07:00 +11°C° 0 mm 0 m/S 559 mmHg 88%
    08:00 +14°C° 0.1 mm 1 m/S 560 mmHg 84%
    09:00 +15°C° 0.1 mm 1 m/S 561 mmHg 80%
    10:00 +16°C° 0.1 mm 1 m/S 562 mmHg 76%
    11:00 +18°C° 0.4 mm 1 m/S 561 mmHg 76%
    12:00 +17°C° 0.4 mm 2 m/S 561 mmHg 77%
    13:00 +17°C° 0.4 mm 2 m/S 560 mmHg 78%
    14:00 +17°C° 0.9 mm 2 m/S 560 mmHg 81%
    15:00 +16°C° 0.9 mm 1 m/S 559 mmHg 84%
    16:00 +16°C° 0.9 mm 1 m/S 558 mmHg 87%
    17:00 +15°C° 1.5 mm 1 m/S 558 mmHg 90%
    18:00 +14°C° 1.5 mm 1 m/S 558 mmHg 93%
    19:00 +13°C° 1.5 mm 1 m/S 558 mmHg 96%
    20:00 +12°C° 2.5 mm 0 m/S 559 mmHg 95%
    21:00 +12°C° 2.5 mm 0 m/S 559 mmHg 94%
    22:00 +12°C° 2.5 mm 0 m/S 560 mmHg 93%
    23:00 +12°C° 0.9 mm 0 m/S 559 mmHg 92%

    25 Januar, Samstag

    Zeit Temperatur Niederschläge Wind Luftdruck Luftfeuchtigkeit
    00:00 +12°C° 0.9 mm 0 m/S 559 mmHg 92%
    01:00 +12°C° 0.9 mm 0 m/S 559 mmHg 91%
    02:00 +11°C° 0.1 mm 0 m/S 559 mmHg 90%
    03:00 +11°C° 0.1 mm 0 m/S 558 mmHg 90%
    04:00 +11°C° 0.1 mm 0 m/S 558 mmHg 89%
    05:00 +11°C° 0 mm 0 m/S 559 mmHg 89%
    06:00 +11°C° 0 mm 0 m/S 559 mmHg 88%
    07:00 +11°C° 0 mm 0 m/S 560 mmHg 88%
    08:00 +13°C° 0 mm 0 m/S 561 mmHg 83%
    09:00 +15°C° 0 mm 1 m/S 561 mmHg 78%
    10:00 +18°C° 0 mm 1 m/S 562 mmHg 72%
    11:00 +17°C° 0.4 mm 2 m/S 562 mmHg 75%
    12:00 +17°C° 0.4 mm 2 m/S 561 mmHg 77%
    13:00 +17°C° 0.4 mm 2 m/S 561 mmHg 80%
    14:00 +17°C° 0.8 mm 2 m/S 560 mmHg 82%
    15:00 +16°C° 0.8 mm 2 m/S 559 mmHg 85%
    16:00 +16°C° 0.8 mm 1 m/S 559 mmHg 87%
    17:00 +15°C° 0.9 mm 1 m/S 559 mmHg 90%
    18:00 +14°C° 0.9 mm 1 m/S 559 mmHg 92%
    19:00 +13°C° 0.9 mm 0 m/S 559 mmHg 95%
    20:00 +12°C° 0.8 mm 0 m/S 559 mmHg 93%
    21:00 +12°C° 0.8 mm 0 m/S 560 mmHg 92%
    22:00 +12°C° 0.8 mm 0 m/S 560 mmHg 91%
    23:00 +12°C° 0.2 mm 0 m/S 559 mmHg 91%

    26 Januar, Sonntag

    Zeit Temperatur Niederschläge Wind Luftdruck Luftfeuchtigkeit
    00:00 +11°C° 0.2 mm 0 m/S 559 mmHg 91%
    01:00 +11°C° 0.2 mm 0 m/S 559 mmHg 91%
    02:00 +11°C° 0.1 mm 0 m/S 558 mmHg 91%
    03:00 +11°C° 0.1 mm 0 m/S 558 mmHg 92%
    04:00 +10°C° 0.1 mm 0 m/S 558 mmHg 92%
    05:00 +11°C° 0 mm 0 m/S 558 mmHg 91%
    06:00 +11°C° 0 mm 0 m/S 559 mmHg 90%
    07:00 +11°C° 0 mm 0 m/S 560 mmHg 89%
    08:00 +13°C° 0.2 mm 0 m/S 560 mmHg 85%
    09:00 +15°C° 0.2 mm 1 m/S 561 mmHg 81%
    10:00 +16°C° 0.2 mm 1 m/S 562 mmHg 77%
    11:00 +17°C° 0.4 mm 2 m/S 562 mmHg 77%
    12:00 +17°C° 0.4 mm 2 m/S 561 mmHg 78%
    13:00 +17°C° 0.4 mm 2 m/S 561 mmHg 78%
    14:00 +17°C° 0.5 mm 2 m/S 560 mmHg 80%
    15:00 +17°C° 0.5 mm 2 m/S 559 mmHg 82%
    16:00 +16°C° 0.5 mm 1 m/S 559 mmHg 83%
    17:00 +15°C° 0.5 mm 1 m/S 559 mmHg 87%
    18:00 +14°C° 0.5 mm 1 m/S 559 mmHg 91%
    19:00 +12°C° 0.5 mm 0 m/S 559 mmHg 94%
    20:00 +12°C° 0.3 mm 0 m/S 559 mmHg 93%
    21:00 +12°C° 0.3 mm 0 m/S 559 mmHg 92%
    22:00 +11°C° 0.3 mm 0 m/S 559 mmHg 91%
    23:00 +11°C° 0.2 mm 0 m/S 559 mmHg 90%
    Mehr zeigen